www.pogodaiklimat.ru

Погода и климат >> Архив погоды >> Венгрия >> Кечкемет


ПОГОДА в Кечкемете

  • Прогноз погоды в Кечкемете
  • Монитор погоды в Кечкемете

АРХИВ ПОГОДЫ в Кечкемете

Время (UTC), дата Ветер
(напр.,м/с)
 
Видим.   Явления Облачность Т
(С)
Тd
(С)
f
(%)
Тe
(С)
Тes
(С)
Комфортность P
(гПа)
Po
(гПа)
Тmin
(С)
Tmax
(С)
R
(мм)
R24
(мм)
S
(см)
06 12.08 н/о
12 12.08 н/о
00 13.08 СВ 2 10 км в посл. час гроза 9/4 1200 м
[Cb cap Ac cuf Ci ing]
+19.2 +18.4 95 +22 +22 комфорт 1010.6 997.3 1
09 13.08 С 4 30 км 1/0
[Ac cast]
+29.3 +17.5 49 +33 +33 душно 1012.4 999.3
10 13.08 СВ 3 н/о н/о +31.3 +17.2 43 +35 +35 очень
душно
1012.0 999.0
11 13.08 З 6
{9}
н/о н/о +31.5 +17.0 42 +35 +35 очень
душно
1011.9 998.9
12 13.08 СЗ 7
{10}
30 км 4/1 1500 м
[Cu hum Ac cast Ci sp]
+30.7 +17.1 44 +34 +34 очень
душно
1011.6 998.6
13 13.08 СЗ 6
{10}
н/о н/о +31.3 +18.0 45 +36 +36 очень
душно
1011.1 998.1
14 13.08 СЗ 7
{11}
н/о н/о +30.0 +16.1 43 +33 +33 душно 1011.2 998.1
15 13.08 СЗ 6
{12}
30 км 3/0
[Ac cast Ci sp]
+28.4 +15.3 45 +31 +31 душно 1011.4 998.3
16 13.08 СЗ 7
{11}
н/о н/о +27.8 +15.4 47 +31 +31 душно 1011.6 998.6
17 13.08 С 5
{9}
н/о н/о +26.5 +15.9 52 +30 +30 душно 1011.7 998.5
18 13.08 СЗ 5
{9}
30 км 9/0
[Ac As Cs]
+25.1 +16.3 58 +28 +28 жарко 1011.8 998.5 +32.3 0
19 13.08 С 3
{7}
н/о н/о +23.9 +16.4 63 +27 +27 жарко 1012.1 998.8
20 13.08 С 3 н/о н/о +23.1 +16.2 65 +28 +28 душно 1011.9 998.5
21 13.08 С 3 30 км 9/0
[Ac As Cs]
+22.5 +16.3 68 +27 +27 душно 1012.2 998.8
22 13.08 С 3 н/о н/о +21.9 +16.6 72 +26 +26 душно 1011.6 998.2
23 13.08 СЗ 6
{10}
н/о н/о +19.7 +16.9 84 +22 +22 комфорт 1011.8 998.3
00 14.08 В 3
{9}
10 км 1/0
[Ci sp]
+19.3 +18.6 96 +22 +22 комфорт 1010.2 996.7 0.5
01 14.08 З 5
{7}
н/о н/о +19.3 +18.8 97 +21 +21 комфорт 1011.5 998.0
02 14.08 СЗ 8
{12}
н/о н/о +17.5 +15.3 87 +16 +16 1011.9 998.3
03 14.08 СЗ 5
{12}
30 км 9/4 1500 м
[Sc Ac As]
+17.5 +15.7 89 +17 +17 1011.3 997.7
04 14.08 СЗ 5
{8}
н/о н/о +16.8 +16.6 99 +16 +16 1011.1 997.5
05 14.08 СЗ 5
{9}
н/о н/о +17.0 +16.7 98 +16 +16 1011.1 997.5
06 14.08 З 5
{7}
8000 м слаб. дождь {гроза} 10/6 210 м
[Frnb Ac As]
+17.3 +17.0 98 +17 +17 1012.1 998.5 +16.7 10 0
07 14.08 СЗ 7
{10}
н/о н/о +16.9 +16.3 96 +16 +16 1013.5 999.8
08 14.08 СЗ 7
{10}
н/о н/о +17.5 +16.0 91 +17 +17 1012.8 999.2
09 14.08 З 5
{8}
8000 м слаб. дождь 10/9 420 м
[Cu Sc Ac As]
+17.0 +15.9 93 +16 +16 1012.9 999.2
10 14.08 СЗ 5
{9}
н/о н/о +16.7 +16.1 96 +16 +16 1013.8 1000.1
11 14.08 З 5
{8}
н/о н/о +17.7 +16.2 91 +17 +17 1014.0 1000.4
12 14.08 СЗ 6
{8}
15 км {ливн. осадки, дождь} 10/10 450 м
[Cu Sc]
+19.0 +15.7 81 +20 +20 1013.9 1000.3 1
13 14.08 СЗ 5
{9}
н/о н/о +20.0 +15.4 75 +22 +22 комфорт 1014.2 1000.7
14 14.08 СЗ 5
{7}
н/о н/о +19.9 +14.9 73 +22 +22 комфорт 1014.1 1000.6
15 14.08 СЗ 5
{8}
25 км 10/8 1080 м
[Sc Ac As]
+20.2 +14.8 71 +23 +23 комфорт 1014.5 1001.0
16 14.08 С 5
{9}
н/о н/о +20.3 +14.2 68 +23 +23 комфорт 1014.6 1001.1
17 14.08 СВ 3
{8}
н/о н/о +18.1 +15.5 85 +18 +18 1015.8 1002.1
18 14.08 В 6
{8}
8000 м слаб. ливневой дождь 9/6 330 м
[Cu Sc Ac As]
+16.5 +15.2 92 +15 +15 1016.5 1002.8 +21.1 1 0
19 14.08 В 4
{7}
н/о н/о +15.7 +14.9 95 +15 +15 1017.6 1003.8
20 14.08 В 1 н/о н/о +14.8 +14.0 95 +15 +15 1017.4 1003.6
21 14.08 СЗ 1 н/о н/о +13.6 +13.4 99 +14 +14 1017.3 1003.4
22 14.08 СЗ 2 н/о н/о +12.6 +12.6 100 +12 +12 1017.4 1003.5
23 14.08 СЗ 3 н/о н/о +12.3 +12.3 100 +11 +11 1017.4 1003.5
00 15.08 СЗ 2 30 км 6/0
[Ci sp]
+11.9 +11.9 100 +11 +11 1017.5 1003.5
01 15.08 СЗ 3 н/о н/о +12.6 +12.6 100 +11 +11 1017.2 1003.3
02 15.08 СЗ 3 н/о н/о +13.0 +13.0 100 +11 +11 1017.1 1003.2
03 15.08 СЗ 3 500 м туман 8/8 60 м
[St]
+13.3 +13.3 100 +12 +12 1016.9 1003.0
04 15.08 СЗ 3 н/о н/о +13.7 +13.7 100 +12 +12 1017.0 1003.1
05 15.08 СЗ 3 н/о н/о +13.7 +13.7 100 +12 +12 1017.1 1003.2
06 15.08 СЗ 4 7000 м {туман} 6/0
[Ci sp]
+14.7 +14.7 100 +13 +13 1017.2 1003.4 +11.8 0.1 0
07 15.08 С 2 н/о н/о +17.7 +12.6 72 +18 +18 1017.1 1003.4
08 15.08 С 3 н/о н/о +20.1 +9.9 52 +22 +22 комфорт 1016.9 1003.3
09 15.08 СВ 5
{8}
30 км 5/1 1350 м
[Cu hum Ci sp]
+21.2 +7.8 42 +22 +22 комфорт 1016.6 1003.1
10 15.08 СВ 4
{8}
н/о н/о +21.7 +7.9 41 +23 +23 комфорт 1016.2 1002.7
11 15.08 С 4
{7}
н/о н/о +22.6 +8.7 41 +24 +24 комфорт 1015.9 1002.5
12 15.08 С 4
{9}
30 км 3/1 1500 м
[Cu hum Ci sp]
+23.3 +7.4 36 +24 +24 комфорт 1015.5 1002.1
13 15.08 С 4
{7}
н/о н/о +24.1 +6.4 32 +24 +24 комфорт 1015.1 1001.7
14 15.08 СВ 4
{9}
н/о н/о +23.9 +6.2 32 +24 +24 комфорт 1014.9 1001.5
15 15.08 СВ 3 30 км 3/3 2000 м
[Cu hum]
+23.7 +6.5 33 +24 +24 комфорт 1014.8 1001.4
16 15.08 С 2 н/о н/о +23.5 +6.7 34 +24 +24 комфорт 1014.5 1001.1
17 15.08 СВ 1 н/о н/о +22.4 +7.8 39 +23 +23 комфорт 1014.7 1001.3
18 15.08 штиль 0 30 км 1/1 2000 м
[Sc diur, vesp]
+18.6 +10.7 60 +19 +19 1015.2 1001.6 +24.5 0
19 15.08 штиль 0 н/о н/о +16.9 +11.0 68 +17 +17 1015.7 1002.0
20 15.08 штиль 0 н/о н/о +15.9 +10.4 70 +16 +16 1016.0 1002.2
21 15.08 штиль 0 30 км 1/0
[Ci sp]
+14.0 +11.5 85 +14 +14 1016.3 1002.4
22 15.08 штиль 0 н/о н/о +13.6 +11.3 86 +13 +13 1016.4 1002.5
23 15.08 штиль 0 н/о н/о +13.0 +11.2 89 +12 +12 1016.4 1002.5
00 16.08 З 1 н/о н/о +13.1 +11.3 89 +13 +13 1016.4 1002.5
01 16.08 штиль 0 н/о н/о +12.6 +11.3 92 +12 +12 1016.2 1002.3
02 16.08 штиль 0 н/о н/о +12.6 +11.5 93 +12 +12 1016.0 1002.1
03 16.08 штиль 0 н/о н/о +12.3 +11.2 93 +12 +12 1016.1 1002.2
04 16.08 штиль 0 н/о н/о +11.5 +10.2 92 +11 +11 1016.2 1002.2
05 16.08 штиль 0 н/о н/о +14.7 +12.6 87 +14 +14 1016.1 1002.3
06 16.08 СЗ 1 30 км 3/0
[Ac trans Ci sp]
+17.5 +12.8 74 +19 +19 1016.3 1002.6 +11.4 0
07 16.08 З 2 н/о н/о +21.3 +11.9 55 +23 +23 комфорт 1016.1 1002.6
08 16.08 З 2 н/о н/о +22.6 +11.7 50 +25 +25 комфорт 1016.2 1002.7
09 16.08 СЗ 2 30 км 4/0
[Ac trans Ci sp]
+24.1 +11.4 45 +26 +26 жарко 1015.9 1002.5
10 16.08 З 3 н/о н/о +24.6 +11.5 44 +26 +26 жарко 1015.8 1002.4
11 16.08 З 4
{8}
н/о н/о +25.3 +12.5 45 +27 +27 жарко 1015.5 1002.2
12 16.08 СЗ 2
{7}
30 км 5/4 1500 м
[Cu hum Ac cast Ci sp]
+24.5 +9.7 39 +25 +25 комфорт 1015.2 1001.8
13 16.08 СЗ 2 н/о н/о +25.5 +11.3 41 +27 +27 жарко 1014.8 1001.5
14 16.08 ЮВ 4
{7}
н/о н/о +20.0 +15.0 73 +22 +22 комфорт 1015.6 1002.0
15 16.08 СЗ 3 30 км в посл. час гроза {ливн. осадки} 9/4 1500 м
[Cu med, cong Ac cuf Ci sp]
+22.4 +14.8 62 +26 +26 жарко 1015.5 1002.0
16 16.08 С 3 н/о н/о +22.8 +12.4 52 +26 +26 жарко 1015.4 1002.0
17 16.08 СЗ 3 н/о н/о +22.8 +13.6 56 +26 +26 жарко 1015.4 1002.0
18 16.08 СЗ 4 30 км {гроза, ливн. осадки} 8/0
[Ac cuf Ci sp]
+20.4 +14.7 70 +23 +23 комфорт 1015.9 1002.4 +26.0 2 0
19 16.08 СЗ 1 н/о н/о +18.9 +15.2 79 +21 +21 комфорт 1016.4 1002.8
20 16.08 СЗ 1 н/о н/о +18.1 +15.4 84 +19 +19 1016.8 1003.1
21 16.08 СЗ 1 30 км 4/0
[Ci sp]
+17.0 +14.8 87 +18 +18 1016.9 1003.2
22 16.08 З 2 н/о н/о +16.3 +15.0 92 +16 +16 1017.1 1003.3
23 16.08 СЗ 2 н/о н/о +15.6 +14.1 91 +15 +15 1016.8 1003.0
00 17.08 СЗ 2 н/о н/о +14.6 +13.5 93 +14 +14 1016.7 1002.9
01 17.08 З 1 н/о н/о +14.2 +12.9 92 +14 +14 1016.6 1002.8
02 17.08 СЗ 1 н/о н/о +13.6 +12.8 95 +14 +14 1016.7 1002.8
03 17.08 СЗ 2 н/о н/о +13.5 +12.9 96 +13 +13 1016.9 1003.0
04 17.08 З 1 н/о н/о +13.0 +12.5 97 +13 +13 1017.1 1003.2
05 17.08 СЗ 2 н/о н/о +14.9 +13.8 93 +15 +15 1017.3 1003.5
06 17.08 СЗ 2 20 км ясно +17.4 +14.7 84 +18 +18 1017.4 1003.7 +12.8 0
07 17.08 СЗ 2 н/о н/о +19.9 +14.3 70 +23 +23 комфорт 1017.6 1004.0
08 17.08 З 3 н/о н/о +22.0 +13.4 58 +25 +25 комфорт 1017.4 1003.9
09 17.08 СЗ 3 30 км 1/1 1200 м
[Cu hum Ac cast Ci sp]
+23.7 +13.6 53 +26 +26 жарко 1017.3 1003.9
10 17.08 З 4 н/о н/о +24.3 +11.3 44 +26 +26 жарко 1017.0 1003.6
11 17.08 З 3 н/о н/о +25.1 +12.0 44 +27 +27 жарко 1016.6 1003.3
12 17.08 З 3 30 км 6/1 1500 м
[Cu hum Cs]
+25.6 +10.6 39 +27 +27 жарко 1016.2 1002.9
13 17.08 СЗ 3
{7}
н/о н/о +26.1 +9.0 34 +26 +26 жарко 1015.8 1002.5
14 17.08 СЗ 4
{7}
н/о н/о +26.0 +9.8 36 +27 +27 жарко 1015.9 1002.6
15 17.08 СЗ 3
{8}
30 км 8/1 1500 м
[Cu hum Cs]
+25.4 +10.5 39 +26 +26 жарко 1015.7 1002.4
16 17.08 СЗ 2
{7}
н/о н/о +26.0 +11.0 39 +27 +27 жарко 1015.5 1002.2
17 17.08 СЗ 3
{8}
н/о н/о +24.7 +10.9 42 +26 +26 жарко 1015.6 1002.3
18 17.08 З 1 30 км 6/1 2000 м
[Sc diur, vesp Ci sp]
+20.9 +12.1 57 +24 +24 комфорт 1015.9 1002.4 +26.6 0
19 17.08 Ю 1 н/о н/о +19.0 +13.0 68 +21 +21 комфорт 1015.9 1002.3
20 17.08 ЮЗ 1 н/о н/о +18.6 +13.2 71 +20 +20 1016.1 1002.5
21 17.08 штиль 0 20 км 6/0
[Ac trans Ci sp]
+17.4 +13.5 78 +17 +17 1016.4 1002.7
22 17.08 штиль 0 н/о н/о +16.4 +13.5 83 +16 +16 1016.2 1002.5
23 17.08 штиль 0 н/о н/о +15.7 +13.2 85 +15 +15 1016.4 1002.6
00 18.08 штиль 0 н/о н/о +15.1 +13.3 89 +15 +15 1016.4 1002.6
01 18.08 штиль 0 н/о н/о +15.1 +13.1 88 +15 +15 1016.0 1002.2
02 18.08 штиль 0 н/о н/о +15.2 +12.2 82 +15 +15 1015.9 1002.1
03 18.08 штиль 0 30 км 4/0
[Ci sp]
+14.4 +11.7 84 +14 +14 1016.1 1002.3
04 18.08 штиль 0 н/о н/о +14.1 +12.3 89 +14 +14 1016.4 1002.6
05 18.08 З 1 н/о н/о +16.4 +12.9 80 +17 +17 1016.5 1002.8
06 18.08 ЮЗ 2 30 км 9/0
[Ac As]
+18.8 +13.4 71 +20 +20 1016.4 1002.8 +13.8 0
07 18.08 Ю 2 н/о н/о +22.0 +13.1 57 +25 +25 комфорт 1016.3 1002.8
08 18.08 Ю 4
{7}
н/о н/о +25.4 +11.9 43 +27 +27 жарко 1016.0 1002.7
09 18.08 Ю 4
{7}
30 км 5/0
[Ac trans Ci sp]
+26.6 +11.9 40 +28 +28 жарко 1016.0 1002.7
10 18.08 Ю 4
{7}
н/о н/о +28.5 +11.6 35 +29 +29 жарко 1015.5 1002.3
11 18.08 ЮЗ 4
{7}
н/о н/о +29.1 +11.2 33 +30 +30 жарко 1015.4 1002.2
12 18.08 ЮЗ 3
{8}
30 км 4/0
[Ac trans Ci sp]
+30.4 +10.9 30 +31 +31 жарко 1014.8 1001.7
13 18.08 Ю 4
{8}
н/о н/о +30.8 +10.7 29 +31 +31 жарко 1014.5 1001.4
14 18.08 ЮЗ 4
{7}
н/о н/о +31.1 +8.8 25 +30 +30 жарко 1014.3 1001.2
15 18.08 ЮЗ 4
{8}
30 км 3/0
[Ci sp]
+31.4 +9.6 26 +31 +31 жарко 1014.1 1001.1
16 18.08 З 3 н/о н/о +30.8 +10.2 28 +31 +31 жарко 1014.1 1001.0
17 18.08 З 4 н/о н/о +29.3 +10.9 32 +30 +30 жарко 1014.2 1001.1
18 18.08 ЮЗ 2 30 км ясно +26.8 +11.7 39 +28 +28 жарко 1014.4 1001.2 +32.1 0
19 18.08 штиль 0 н/о н/о +22.8 +13.8 57 +26 +26 жарко 1014.9 1001.5
20 18.08 штиль 0 н/о н/о +20.9 +14.1 65 +23 +23 комфорт 1015.3 1001.8
21 18.08 Ю 1 н/о н/о +19.6 +13.5 68 +22 +22 комфорт 1015.4 1001.8
22 18.08 Ю 1 н/о н/о +19.0 +13.4 70 +21 +21 комфорт 1015.6 1002.0
23 18.08 Ю 1 н/о н/о +18.8 +13.4 71 +21 +21 комфорт 1015.6 1002.0
00 19.08 Ю 1 н/о н/о +17.8 +13.3 75 +19 +19 1015.6 1001.9

 

Местоположение метеостанции Кечкемет (Венгрия): широта 46.92 долгота 19.75 высота над уровнем моря 123 м.

В архиве по умолчанию представлена погода в Кечкемете за последнюю неделю. Архивные данные за месяц целиком и за предыдущие месяцы, начиная с января 2011 года, Вы можете получить, выбрав интересующий диапазон дат из раскрывающегося списка и нажав кнопку "Ввод!".


*Определитесь, кто Вы:
робот инопланетянин человек

Внимание! Время в таблицах - всемирное. Для получения местного времени необходимо прибавить поправку, которая равна 1 ч.

Смотрите также архив погоды в соседних городах и на ближайших метеорологических станциях:

Погода в Сольноке (Венгрия) (43 км)
Погода в Будапеште (Венгрия) (71 км)
Погода в Пакше (Венгрия) (78 км)
Погода в Сегеде (Венгрия) (79 км)
Погода в Агарде (Венгрия) (90 км)
Погода в Паличе (Сербия) (91 км)
Погода в Байе (Венгрия) (99 км)
Погода в Порозло (Венгрия) (105 км)
Погода на Кекеше (Венгрия) (108 км)
Погода в Бекешчабе (Венгрия) (111 км)

Пояснения к столбцам:

Ветер - указаны скорость ветра в м/с - средняя за 10 мин, порывы в срок и между сроками (в фигурных скобках) и направление, откуда дует ветер: С - северный, СВ - северо-восточный, В - восточный, ЮВ - юго-восточный, Ю - южный, ЮЗ - юго-западный, З - западный, СЗ - северо-западный.
Видимость - горизонтальная дальность видимости в метрах или километрах. При видимости от 1 до 10 км при отсутствии осадков обычно наблюдается дымка, при ухудшении видимости до 1 км и менее - туман. В сухую погоду видимость может ухудшаться дымом, пылью или мглою.
Явления - указаны атмосферные явления, наблюдавшиеся в срок или в последний час перед сроком; фигурными скобками обозначены явления, наблюдавшиеся между сроками (за 1-3 часа до срока); квадратными скобками обозначены град или гололедные отложения с указанием их диаметра в мм.
Облачность - указаны через наклонную черту общая и нижняя облачность в баллах и высота нижней границы облаков в метрах; квадратными скобками обозначены формы облаков: Ci - перистые, Cs - перисто-слоистые, Cc - перисто-кучевые, Ac - высококучевые, As - высокослоистые, Sc - слоисто-кучевые, Ns - слоисто-дождевые, Cu - кучевые, Cb - кучево-дождевые. Подробнее классификацию облаков см. в Атласе облаков (PDF).
T - Температура воздуха - температура, измеренная на высоте 2 м над землей.
Td - Температура точки росы - температура, при понижении до которой содержащийся в воздухе водяной пар достигнет насыщения.
f - Относительная влажность воздуха - влажноcть воздуха, измеренная на высоте 2 м над землей.
Te - Эффективная температура - температура, которую ощущает одетый по сезону человек в тени. Характеристика душности погоды. При расчете учитывается влияние влажности воздуха и скорости ветра на теплоощущения человека.
Tes - Эффективная температура на солнце - температура, которую ощущает человек, с поправкой на солнечный нагрев. Характеристика знойности погоды. Зависит от высоты солнца над горизонтом, облачности и скорости ветра. Ночью, в пасмурную погоду, а также при ветре 12 м/с и более поправка равна нулю.
P - Атмосферное давление - приведенное к уровню моря атмосферное давление.
Po - Атмосферное давление - измеренное на уровне метеостанции атмосферное давление.
Tmin - Минимальная температура - минимум температуры воздуха на высоте 2 м над землей.
Tmax - Максимальная температура - максимум температуры воздуха на высоте 2 м над землей.
R - Количество осадков - Количество выпавших осадков за период времени, мм. При наведении курсора мыши на число - период времени, за который выпало указанное количество осадков.
R24 - Количество осадков - Количество выпавших осадков за 24 часа, мм.
S - Снежный покров - Высота снежного покрова, см. При наведении курсора мыши на число - состояние снежного покрова и степень покрытия местности в баллах.